Terminal Aerodrome Forecast
Issued by NWS

Home | Current Version | Previous Version | Text Only | Print | Product List | Glossary On
Versions: 1 2 3 4 5 6 7 8 9 10 11 12 13 14 15 16 17
000
FTUS43 KDMX 280624 AAA
TAFMCW
TAF AMD
KMCW 280624Z 2806/2906 36009KT P6SM BKN020
     FM280800 34010KT P6SM BKN020 OVC060
     FM281100 35011G20KT P6SM VCSH BKN012
     FM281400 35013G23KT P6SM SCT012 BKN018
     FM281900 36012G20KT P6SM SCT022 BKN030
     FM282100 36012G20KT P6SM SCT030 BKN045=

USA.gov is the U.S. government's official web portal to all federal, state and local government web resources and services.